www.pogodaiklimat.ru

Погода и климат >> Архив погоды >> Мексика >> Лорето


ПОГОДА в Лорето

  • Прогноз погоды в Лорето
  • Монитор погоды в Лорето

АРХИВ ПОГОДЫ в Лорето

Время (UTC), дата Ветер
(напр.,м/с)
 
Видим.   Явления Облачность Т
(С)
Тd
(С)
f
(%)
Тe
(С)
Тes
(С)
Комфортность P
(гПа)
Po
(гПа)
Тmin
(С)
Tmax
(С)
R
(мм)
R24
(мм)
S
(см)
12 16.08 штиль 0 20 км 5/0
[As trans Cs]
+30.7 +26.1 77 +46 +46 опасность
перегрева
1011.4 1010.6 +30.0 +38.5
15 16.08 Ю 1 20 км 8/3 1500 м
[Sc diur, vesp Ac cuf Cs]
+30.6 +25.8 76 +46 +48 опасность
перегрева
1012.8 1012.0
18 16.08 ЮВ 2 20 км 8/1 1500 м
[Sc diur, vesp Ac trans]
+35.0 +24.7 55 +48 +57 опасность
перегрева
1012.6 1011.8 +29.5 +35.3
21 16.08 ЮВ 4 20 км 5/1 1500 м
[Sc diur, vesp Ac trans]
+35.1 +24.2 53 +47 +55 опасность
перегрева
1011.1 1010.4
12 17.08 штиль 0 20 км 5/0
[Ac trans]
+30.0 +23.1 67 +40 +40 очень
душно
1009.2 1008.4 +29.0 +36.6
15 17.08 З 1 20 км 4/0
[As trans Cs]
+34.5 +13.2 28 +35 +39 очень
жарко
1010.0 1009.2
18 17.08 СВ 2 20 км ясно +36.6 +23.5 47 +47 +66 опасность
перегрева
1009.8 1009.1 +28.8 +37.4
21 17.08 СВ 2 20 км ясно +39.1 +22.5 39 +48 +66 опасность
перегрева
1008.7 1007.9
03 18.08 Ю 1 20 км ясно +33.0 +24.2 60 +45 +45 опасность
перегрева
1007.6 1006.9
12 18.08 З 1 20 км ясно +30.5 +12.3 33 +31 +31 жарко 1007.7 1006.9 +29.0 +40.2
15 18.08 штиль 0 20 км ясно +32.7 +20.4 48 +39 +45 очень
душно
1009.3 1008.5
18 18.08 В 1 20 км ясно +36.6 +18.0 34 +40 +62 опасность
солнечного
удара
1009.5 1008.8 +28.8 +37.5
21 18.08 ЮВ 2 20 км ясно +38.7 +17.5 29 +42 +59 опасность
перегрева
1008.4 1007.6
00 19.08 Ю 2 20 км ясно +35.9 +22.0 45 +44 +48 опасность
перегрева
1007.3 1006.5 +28.8 +39.9
03 19.08 Ю 1 20 км ясно +31.9 +23.6 62 +43 +43 опасность
перегрева
1007.9 1007.2
12 19.08 штиль 0 20 км 3/0
[Cs]
+28.3 +20.0 61 +35 +35 очень
душно
1008.6 1007.8 +27.9 +39.9
15 19.08 штиль 0 20 км 6/0
[As trans Cs]
+32.0 +19.0 46 +37 +42 очень
душно
1009.6 1008.8
18 19.08 СВ 2 20 км 3/0
[As trans Ci sp]
+35.0 +26.2 60 +51 +67 опасность
перегрева
1009.8 1009.0 +27.5 +35.5
21 19.08 СВ 3 20 км 3/0
[As trans Ci sp]
+37.0 +28.0 60 +57 +71 опасность
перегрева
1008.4 1007.6
00 20.08 СВ 1 20 км ясно +35.8 +26.0 57 +51 +56 опасность
перегрева
1006.7 1005.9 +27.5 +37.4
03 20.08 штиль 0 20 км ясно +33.6 +21.3 49 +41 +41 опасность
перегрева
1006.9 1006.2
12 20.08 штиль 0 20 км ясно +30.3 +20.2 55 +37 +37 очень
душно
1007.0 1006.3 +29.8 +37.5
15 20.08 штиль 0 20 км 1/0
[Ci fib]
+37.7 +17.6 31 +41 +47 опасность
перегрева
1008.1 1007.3
18 20.08 В 1 20 км 3/0
[Ci fib]
+40.2 +20.1 31 +45 +65 опасность
перегрева
1008.5 1007.8 +29.0 +40.5
21 20.08 СВ 2 20 км 3/0
[Ci fib]
+41.2 +20.2 30 +47 +63 опасность
перегрева
1007.2 1006.5
12 21.08 штиль 0 20 км 5/0
[Ci]
+32.2 +26.4 72 +49 +49 опасность
перегрева
1007.0 1006.2 +29.0 +42.1
15 21.08 В 1 20 км 6/0
[Ac trans Cs]
+33.8 +27.8 71 +54 +58 опасность
перегрева
1007.7 1007.0
18 21.08 ЮВ 2 20 км 1/0
[As trans]
+35.8 +26.6 59 +53 +70 опасность
перегрева
1008.3 1007.6 +29.0 +37.6
21 21.08 ЮВ 3 20 км 3/0
[As trans]
+38.9 +22.1 38 +47 +59 опасность
перегрева
1006.8 1006.0
00 22.08 Ю 3 20 км 3/0
[As trans]
+35.9 +18.5 36 +40 +43 очень
душно
1005.3 1004.6 +29.0 +39.1
03 22.08 Ю 1 20 км 3/0
[Ac trans Ci fib]
+33.0 +26.4 68 +49 +49 опасность
перегрева
1006.8 1006.0
12 22.08 ЮЗ 2 20 км 4/0
[Ci]
+32.3 +14.8 35 +34 +34 душно 1007.8 1007.1 +32.0 +39.1
15 22.08 ЮЗ 2 20 км 5/0
[As trans Ci]
+33.7 +17.8 39 +38 +41 очень
душно
1008.8 1008.0
18 22.08 ЮВ 2 20 км 5/0
[Ci]
+38.2 +21.3 38 +45 +62 опасность
перегрева
1009.2 1008.5 +31.5 +38.6
21 22.08 ЮВ 3 20 км 6/0
[As trans Ci]
+35.6 +23.2 49 +46 +56 опасность
перегрева
1008.4 1007.7
00 23.08 ЮВ 4 20 км 8/5 1200 м
[Sc diur, vesp Ac trans]
+32.7 +25.5 66 +47 +48 опасность
перегрева
1007.4 1006.6 +31.5 +38.8

 

Местоположение метеостанции Лорето (Мексика): широта 26.02 долгота -111.30 высота над уровнем моря 7 м.

В архиве по умолчанию представлена погода в Лорето за последнюю неделю. Архивные данные за месяц целиком и за предыдущие месяцы, начиная с января 2011 года, Вы можете получить, выбрав интересующий диапазон дат из раскрывающегося списка и нажав кнопку "Ввод!".


*Определитесь, кто Вы:
робот инопланетянин человек

Внимание! Время в таблицах - всемирное. Для получения местного времени необходимо прибавить поправку, которая равна -6 ч.

Смотрите также архив погоды в соседних городах и на ближайших метеорологических станциях:

Погода в Сьюдад-Конститусьоне (Мексика) (126 км)
Погода в Санта-Розалии (Мексика) (169 км)
Погода в Сьюдад-Обрегоне (Мексика) (211 км)
Погода в Гуаймасе (Мексика) (215 км)
Погода в Эмпальме (Мексика) (223 км)
Погода в Ла-Пасе (Мексика) (229 км)
Погода в Чойсе (Мексика) (319 км)
Погода в Эрмосильо Магна (Мексика) (342 км)
Погода в Эрмосильо (Мексика) (342 км)
Погода в Кульякане (Мексика) (415 км)

Пояснения к столбцам:

Ветер - указаны скорость ветра в м/с - средняя за 10 мин, порывы в срок и между сроками (в фигурных скобках) и направление, откуда дует ветер: С - северный, СВ - северо-восточный, В - восточный, ЮВ - юго-восточный, Ю - южный, ЮЗ - юго-западный, З - западный, СЗ - северо-западный.
Видимость - горизонтальная дальность видимости в метрах или километрах. При видимости от 1 до 10 км при отсутствии осадков обычно наблюдается дымка, при ухудшении видимости до 1 км и менее - туман. В сухую погоду видимость может ухудшаться дымом, пылью или мглою.
Явления - указаны атмосферные явления, наблюдавшиеся в срок или в последний час перед сроком; фигурными скобками обозначены явления, наблюдавшиеся между сроками (за 1-3 часа до срока); квадратными скобками обозначены град или гололедные отложения с указанием их диаметра в мм.
Облачность - указаны через наклонную черту общая и нижняя облачность в баллах и высота нижней границы облаков в метрах; квадратными скобками обозначены формы облаков: Ci - перистые, Cs - перисто-слоистые, Cc - перисто-кучевые, Ac - высококучевые, As - высокослоистые, Sc - слоисто-кучевые, Ns - слоисто-дождевые, Cu - кучевые, Cb - кучево-дождевые. Подробнее классификацию облаков см. в Атласе облаков (PDF).
T - Температура воздуха - температура, измеренная на высоте 2 м над землей.
Td - Температура точки росы - температура, при понижении до которой содержащийся в воздухе водяной пар достигнет насыщения.
f - Относительная влажность воздуха - влажноcть воздуха, измеренная на высоте 2 м над землей.
Te - Эффективная температура - температура, которую ощущает одетый по сезону человек в тени. Характеристика душности погоды. При расчете учитывается влияние влажности воздуха и скорости ветра на теплоощущения человека.
Tes - Эффективная температура на солнце - температура, которую ощущает человек, с поправкой на солнечный нагрев. Характеристика знойности погоды. Зависит от высоты солнца над горизонтом, облачности и скорости ветра. Ночью, в пасмурную погоду, а также при ветре 12 м/с и более поправка равна нулю.
P - Атмосферное давление - приведенное к уровню моря атмосферное давление.
Po - Атмосферное давление - измеренное на уровне метеостанции атмосферное давление.
Tmin - Минимальная температура - минимум температуры воздуха на высоте 2 м над землей.
Tmax - Максимальная температура - максимум температуры воздуха на высоте 2 м над землей.
R - Количество осадков - Количество выпавших осадков за период времени, мм. При наведении курсора мыши на число - период времени, за который выпало указанное количество осадков.
R24 - Количество осадков - Количество выпавших осадков за 24 часа, мм.
S - Снежный покров - Высота снежного покрова, см. При наведении курсора мыши на число - состояние снежного покрова и степень покрытия местности в баллах.